This demonstration page uses our WeatherBlox Daily Observations layout. Learn more.

40.92945, -100.16068

Hourly Observations for December 17, 2019

Temp ( °F °C ) Dew Point ( °F °C ) Humidity (%) Winds ( mph kmh ) Pressure ( in mb ) Visibility ( mi km ) Precip ( " mm )
12:15 am 00:15 Clear 16 -9 12 -11.2 84 84 WNW 15 24 30.46 1032 10 16.0934 0 0
12:35 am 00:35 Clear 17 -8.6 12 -11.1 82 82 WNW 16 26 30.46 1031 10 16.0934 0 0
12:55 am 00:55 Clear 17 -8.5 12 -11 82 82 WNW 16 26 30.46 1031 10 16.0934 0 0
1:15 am 01:15 Clear 16 -8.8 11 -11.4 82 82 WNW 14 22 30.46 1031 10 16.0934 0 0
1:35 am 01:35 Clear 16 -9.1 11 -11.6 82 82 WNW 15 24 30.46 1032 10 16.0934 0 0
1:55 am 01:55 Clear 16 -9.1 11 -11.7 82 82 WNW 16 26 30.46 1032 10 16.0934 0 0
2:15 am 02:15 Clear 16 -9 11 -11.8 80 80 WNW 14 22 30.47 1032 10 16.0934 0 0
2:35 am 02:35 Clear 16 -9 11 -11.8 80 80 WNW 14 22 30.48 1032 10 16.0934 0 0
2:55 am 02:55 Clear 16 -9.1 10 -12 80 80 WNW 14 22 30.48 1032 10 16.0934 0 0
3:15 am 03:15 Clear 15 -9.5 10 -12 82 82 WNW 13 20 30.49 1032 10 16.0934 0 0
3:35 am 03:35 Clear 14 -10.2 9 -12.7 82 82 WNW 13 20 30.49 1033 10 16.0934 0 0
3:55 am 03:55 Clear 13 -10.5 9 -12.9 83 83 WNW 13 20 30.49 1032 10 16.0934 0 0
4:15 am 04:15 Clear 13 -10.3 9 -12.8 82 82 WNW 13 20 30.49 1032 10 16.0934 0 0
4:35 am 04:35 Clear 13 -10.3 9 -12.9 81 81 WNW 13 20 30.49 1032 10 16.0934 0 0
4:55 am 04:55 Clear 13 -10.6 8 -13.1 82 82 WNW 12 19 30.49 1032 10 16.0934 0 0
5:15 am 05:15 Clear 13 -10.6 8 -13.2 81 81 WNW 10 17 30.48 1032 10 16.0934 0 0
5:35 am 05:35 Clear 12 -11.2 8 -13.6 83 83 WNW 10 17 30.49 1032 10 16.0934 0 0
5:55 am 05:55 Clear 12 -11.2 7 -13.7 82 82 WNW 9 15 30.49 1032 10 16.0934 0 0
6:15 am 06:15 Clear 11 -11.5 7 -13.8 83 83 WNW 10 17 30.49 1032 10 16.0934 0 0
6:35 am 06:35 Clear 10 -12 6 -14.2 84 84 WNW 8 13 30.49 1033 10 16.0934 0 0
6:55 am 06:55 Clear 9 -12.6 6 -14.7 84 84 WNW 9 15 30.51 1033 10 16.0934 0 0
7:15 am 07:15 Clear 10 -12.5 6 -14.7 84 84 WNW 7 11 30.51 1033 10 16.0934 0 0
7:35 am 07:35 Clear 10 -12 6 -14.5 82 82 WNW 7 11 30.5 1033 10 16.0934 0 0
7:55 am 07:55 Clear 11 -11.9 6 -14.5 81 81 WNW 9 15 30.51 1033 10 16.0934 0 0
8:15 am 08:15 Sunny 10 -12 6 -14.5 82 82 WNW 12 19 30.51 1033 10 16.0934 0 0
8:35 am 08:35 Sunny 11 -11.5 6 -14.2 81 81 WNW 12 19 30.5 1033 10 16.0934 0 0
8:55 am 08:55 Sunny 12 -11 7 -14 79 79 WNW 8 13 30.5 1033 10 16.0934 0 0
9:15 am 09:15 Sunny 13 -10.6 8 -13.6 79 79 WNW 8 13 30.49 1032 10 16.0934 0 0
9:35 am 09:35 Sunny 15 -9.2 9 -12.7 76 76 WNW 9 15 30.47 1032 10 16.0934 0 0
9:55 am 09:55 Sunny 18 -8 10 -12.3 72 72 WNW 13 20 30.46 1032 10 16.0934 0 0
10:15 am 10:15 Partly Cloudy 19 -7.2 11 -11.4 72 72 WNW 13 20 30.46 1032 10 16.0934 0 0
10:35 am 10:35 Sunny 20 -6.6 12 -11 71 71 WNW 12 19 30.45 1031 10 16.0934 0 0
10:55 am 10:55 Sunny 23 -5 15 -9.7 70 70 WNW 12 19 30.43 1030 10 16.0934 0 0
11:15 am 11:15 Partly Cloudy 25 -3.9 16 -8.9 69 69 WNW 10 17 30.41 1030 10 16.0934 0 0
11:35 am 11:35 Sunny 26 -3.5 17 -8.6 68 68 WNW 12 19 30.4 1030 10 16.0934 0 0
11:55 am 11:55 Sunny 27 -2.8 17 -8.2 67 67 WNW 13 20 30.39 1029 10 16.0934 0 0
12:15 pm 12:15 Sunny 28 -2.3 18 -7.7 67 67 NW 16 26 30.38 1029 10 16.0934 0 0
12:35 pm 12:35 Sunny 29 -1.5 18 -7.8 63 63 WNW 13 20 30.35 1028 10 16.0934 0 0
12:55 pm 12:55 Sunny 31 -0.8 18 -7.7 60 60 W 10 17 30.34 1027 10 16.0934 0 0
1:15 pm 13:15 Sunny 32 -0.1 19 -7.5 58 58 WNW 14 22 30.32 1027 10 16.0934 0 0
1:35 pm 13:35 Sunny 31 -0.3 19 -7.2 60 60 NW 12 19 30.32 1027 10 16.0934 0 0
1:55 pm 13:55 Sunny 32 -0.1 19 -7.3 59 59 WNW 15 24 30.31 1026 10 16.0934 0 0
2:15 pm 14:15 Sunny 32 0 19 -7.3 58 58 WNW 13 20 30.32 1027 10 16.0934 0 0
2:35 pm 14:35 Sunny 32 0 19 -7 60 60 WNW 14 22 30.32 1027 10 16.0934 0 0
2:55 pm 14:55 Sunny 32 0 20 -6.7 61 61 WNW 18 30 30.32 1027 10 16.0934 0 0
3:15 pm 15:15 Sunny 32 0.2 21 -6.1 63 63 WNW 16 26 30.32 1027 10 16.0934 0 0
3:35 pm 15:35 Sunny 33 0.4 21 -5.9 63 63 WNW 14 22 30.31 1027 10 16.0934 0 0
3:55 pm 15:55 Sunny 33 0.3 22 -5.4 66 66 WNW 15 24 30.31 1027 10 16.0934 0 0
4:15 pm 16:15 Sunny 32 0 23 -5.2 68 68 WNW 12 19 30.33 1027 10 16.0934 0 0
4:35 pm 16:35 Sunny 31 -0.4 23 -5.2 70 70 WNW 10 17 30.33 1027 10 16.0934 0 0
4:55 pm 16:55 Sunny 30 -0.9 23 -5.2 73 73 WNW 9 15 30.34 1027 10 16.0934 0 0
5:15 pm 17:15 Clear 28 -2 22 -5.7 76 76 WNW 12 19 30.35 1028 10 16.0934 0 0
5:35 pm 17:35 Clear 27 -2.9 21 -6.2 78 78 WNW 9 15 30.35 1028 10 16.0934 0 0
5:55 pm 17:55 Clear 25 -4 19 -7 80 80 WNW 9 15 30.38 1029 10 16.0934 0 0
6:15 pm 18:15 Clear 25 -4 19 -7 80 80 WNW 10 17 30.38 1029 10 16.0934 0 0
6:35 pm 18:35 Clear 25 -4 19 -7 80 80 WNW 8 13 30.38 1029 10 16.0934 0 0
6:55 pm 18:55 Clear 23 -5 18 -7.7 82 82 WNW 9 15 30.4 1029 10 16.0934 0 0
7:15 pm 19:15 Clear 24 -4.6 19 -7.1 83 83 WNW 10 17 30.39 1029 10 16.0934 0 0
7:35 pm 19:35 Clear 22 -5.5 18 -7.7 85 85 NW 6 9 30.41 1030 10 16.0934 0 0
7:55 pm 19:55 Clear 21 -5.9 18 -8 85 85 NW 8 13 30.42 1030 10 16.0934 0 0
8:15 pm 20:15 Clear 24 -4.4 19 -7 82 82 WNW 10 17 30.4 1030 10 16.0934 0 0
8:35 pm 20:35 Clear 23 -4.8 19 -7.4 82 82 NW 9 15 30.4 1029 10 16.0934 0 0
8:55 pm 20:55 Clear 22 -5.5 18 -7.9 83 83 WNW 7 11 30.4 1030 10 16.0934 0 0
9:15 pm 21:15 Clear 20 -6.5 17 -8.6 85 85 W 3 6 30.41 1030 10 16.0934 0 0
9:35 pm 21:35 Clear 20 -6.9 17 -8.6 88 88 WNW 3 6 30.42 1030 10 16.0934 0 0
9:55 pm 21:55 Clear 19 -7.2 16 -9.1 86 86 WNW 8 13 30.42 1030 10 16.0934 0 0
10:15 pm 22:15 Clear 18 -7.7 15 -9.4 88 88 W 8 13 30.42 1030 10 16.0934 0 0
10:35 pm 22:35 Clear 18 -8 15 -9.5 89 89 W 9 15 30.42 1030 10 16.0934 0 0
10:55 pm 22:55 Clear 17 -8.3 14 -9.9 88 88 W 8 13 30.42 1030 10 16.0934 0 0
11:15 pm 23:15 Clear 15 -9.5 12 -11 89 89 W 3 6 30.44 1031 10 16.0934 0 0
11:35 pm 23:35 Clear 15 -9.4 13 -10.8 90 90 WNW 5 7 30.44 1031 10 16.0934 0 0
11:55 pm 23:55 Clear 16 -8.8 14 -10 91 91 W 3 6 30.42 1030 10 16.0934 0 0

Powered by AerisWeather